Terminal Aerodrome Forecast
Issued by NWS St Louis, MO

Home | Current Version | Previous Version | Text Only | Print | Product List | Glossary On
Versions: 1 2 3 4 5 6 7 8 9 10 11 12 13 14 15 16 17 18 19 20 21
000
FTUS43 KLSX 271400 AAC
TAFCOU
TAF AMD
KCOU 271455Z 2715/2812 32012KT P6SM SCT040
     FM271600 32015G22KT P6SM SCT040
     FM280200 31006KT P6SM SKC=

USA.gov is the U.S. government's official web portal to all federal, state and local government web resources and services.